EWG397 EDDS-LICJ

Flight info

Callsign EWG397
Flight time 1h 45m
Altitude 33000
Route ROTWE7H ROTWE Y126 TUBLO N850 NATOR DCT TRA DCT RIPUS DCT GERSA DCT SOSON DCT ODINA DCT KALIK DCT GILIO DCT GIANO GIANO3N
Aircraft A320/M-VGDW/C

Departure

Time 2026-05-04 12:34
Airport Stuttgart Airport (EDDS)

Arrival

Time 2026-05-04 14:20
Airport Falcone–Borsellino Airport (LICJ)
Time Latitude Longitude Altitude Speed Heading
2026-05-04 11:48 48.68868 9.19289 1316 ft 0 kts 343°
2026-05-04 12:24 48.68867 9.19290 1315 ft 2 kts 343°
2026-05-04 12:24 48.68842 9.19300 1315 ft 4 kts 344°
2026-05-04 12:24 48.68816 9.19307 1315 ft 4 kts
2026-05-04 12:24 48.68794 9.19296 1314 ft 4 kts 52°
2026-05-04 12:25 48.68788 9.19283 1315 ft 1 kts 74°
2026-05-04 12:28 48.68797 9.19332 1314 ft 10 kts 74°
2026-05-04 12:28 48.68817 9.19440 1312 ft 11 kts 74°
2026-05-04 12:28 48.68839 9.19554 1310 ft 12 kts 73°
2026-05-04 12:29 48.68865 9.19687 1308 ft 14 kts 75°
2026-05-04 12:29 48.68893 9.19846 1303 ft 17 kts 78°
2026-05-04 12:29 48.68848 9.19893 1299 ft 10 kts 165°
2026-05-04 12:29 48.68780 9.19944 1294 ft 12 kts 159°
2026-05-04 12:30 48.68722 9.19970 1291 ft 14 kts 164°
2026-05-04 12:30 48.68671 9.19992 1288 ft 0 kts 164°
2026-05-04 12:32 48.68663 9.19995 1287 ft 6 kts 164°
2026-05-04 12:32 48.68599 9.20031 1286 ft 10 kts 144°
2026-05-04 12:33 48.68593 9.20115 1282 ft 0 kts 73°
2026-05-04 12:33 48.68594 9.20124 1282 ft 2 kts 73°
2026-05-04 12:33 48.68599 9.20148 1281 ft 4 kts 73°
2026-05-04 12:33 48.68646 9.20392 1277 ft 58 kts 73°
2026-05-04 12:34 48.68821 9.21310 1265 ft 121 kts 74°
2026-05-04 12:34 48.69101 9.22790 1263 ft 165 kts 73°
2026-05-04 12:34 48.69402 9.24437 1902 ft 161 kts 75°
2026-05-04 12:34 48.69693 9.26089 2515 ft 168 kts 72°
2026-05-04 12:35 48.70016 9.27890 2774 ft 186 kts 71°
2026-05-04 12:35 48.70396 9.29886 2954 ft 210 kts 72°
2026-05-04 12:35 48.70845 9.32130 3175 ft 237 kts 72°
2026-05-04 12:35 48.71265 9.34617 3769 ft 249 kts 85°
2026-05-04 12:36 48.70877 9.37138 4604 ft 250 kts 122°
2026-05-04 12:36 48.69710 9.39127 5325 ft 255 kts 147°
2026-05-04 12:36 48.68110 9.40065 6353 ft 247 kts 170°
2026-05-04 12:36 48.66397 9.40209 7254 ft 247 kts 182°
2026-05-04 12:37 48.64699 9.39825 8078 ft 248 kts 195°
2026-05-04 12:37 48.63158 9.38619 8820 ft 253 kts 219°
2026-05-04 12:37 48.61930 9.36558 9246 ft 275 kts 235°
2026-05-04 12:37 48.61201 9.33836 9916 ft 286 kts 257°
2026-05-04 12:38 48.61195 9.30808 10649 ft 293 kts 276°
2026-05-04 12:38 48.61554 9.27659 10885 ft 316 kts 277°
2026-05-04 12:38 48.61978 9.24287 11151 ft 336 kts 278°
2026-05-04 12:38 48.62199 9.20739 11517 ft 344 kts 261°
2026-05-04 12:39 48.61571 9.17235 12074 ft 347 kts 247°
2026-05-04 12:39 48.60582 9.13897 12777 ft 349 kts 244°
2026-05-04 12:39 48.59589 9.10559 13600 ft 348 kts 245°
2026-05-04 12:39 48.58666 9.07158 14234 ft 351 kts 248°
2026-05-04 12:40 48.57851 9.03656 14821 ft 355 kts 250°
2026-05-04 12:40 48.57127 9.00046 15231 ft 363 kts 252°
2026-05-04 12:40 48.56474 8.96419 15908 ft 363 kts 253°
2026-05-04 12:40 48.55839 8.92721 16516 ft 365 kts 253°
2026-05-04 12:41 48.55202 8.88985 17106 ft 368 kts 253°
2026-05-04 12:41 48.54551 8.85238 17681 ft 371 kts 253°
2026-05-04 12:41 48.53879 8.81456 18261 ft 374 kts 252°
2026-05-04 12:41 48.53190 8.77656 18755 ft 377 kts 252°
2026-05-04 12:42 48.52486 8.73828 19263 ft 380 kts 252°
2026-05-04 12:42 48.51777 8.69979 19782 ft 382 kts 252°
2026-05-04 12:42 48.51066 8.66100 20304 ft 385 kts 252°
2026-05-04 12:42 48.50353 8.62191 20811 ft 387 kts 252°
2026-05-04 12:43 48.49640 8.58275 21317 ft 389 kts 252°
2026-05-04 12:43 48.48923 8.54320 21785 ft 392 kts 252°
2026-05-04 12:43 48.48006 8.50463 22229 ft 392 kts 242°
2026-05-04 12:43 48.46598 8.46954 22678 ft 392 kts 231°
2026-05-04 12:44 48.44758 8.43936 23105 ft 393 kts 220°
2026-05-04 12:44 48.42547 8.41507 23523 ft 394 kts 210°
2026-05-04 12:44 48.40072 8.39717 23873 ft 397 kts 201°
2026-05-04 12:44 48.37411 8.38565 24245 ft 399 kts 193°
2026-05-04 12:45 48.34757 8.37755 25296 ft 379 kts 193°
2026-05-04 12:45 48.32246 8.36972 26449 ft 359 kts 194°
2026-05-04 12:45 48.29830 8.36206 27288 ft 352 kts 194°
2026-05-04 12:45 48.27473 8.35449 27827 ft 350 kts 194°
2026-05-04 12:46 48.25083 8.34677 28296 ft 352 kts 194°
2026-05-04 12:46 48.22684 8.33906 28703 ft 353 kts 194°
2026-05-04 12:46 48.20274 8.33144 29124 ft 355 kts 194°
2026-05-04 12:46 48.17815 8.32627 29476 ft 360 kts 187°
2026-05-04 12:47 48.15273 8.32633 29613 ft 371 kts 179°
2026-05-04 12:47 48.12687 8.33163 29758 ft 380 kts 174°
2026-05-04 12:47 48.10051 8.33813 29904 ft 386 kts 174°
2026-05-04 12:47 48.07378 8.34458 30044 ft 392 kts 174°
2026-05-04 12:48 48.04666 8.35106 30169 ft 398 kts 174°
2026-05-04 12:48 48.01913 8.35764 30294 ft 403 kts 174°
2026-05-04 12:48 47.99127 8.36431 30417 ft 409 kts 174°
2026-05-04 12:48 47.96302 8.37109 30540 ft 413 kts 174°
2026-05-04 12:49 47.93448 8.37799 30664 ft 418 kts 174°
2026-05-04 12:49 47.90564 8.38497 30786 ft 421 kts 174°
2026-05-04 12:49 47.87662 8.39202 30909 ft 425 kts 174°
2026-05-04 12:49 47.84733 8.39910 31057 ft 427 kts 174°
2026-05-04 12:50 47.81795 8.40619 31261 ft 428 kts 174°
2026-05-04 12:50 47.78858 8.41326 31498 ft 428 kts 174°
2026-05-04 12:50 47.75917 8.42033 31731 ft 428 kts 174°
2026-05-04 12:50 47.73012 8.42731 31954 ft 428 kts 174°
2026-05-04 12:51 47.70060 8.43438 32120 ft 430 kts 174°
2026-05-04 12:51 47.67100 8.44092 32318 ft 430 kts 176°
2026-05-04 12:51 47.64126 8.44607 32547 ft 430 kts 177°
2026-05-04 12:51 47.61149 8.45023 32791 ft 430 kts 178°
2026-05-04 12:52 47.58172 8.45395 32966 ft 430 kts 178°
2026-05-04 12:52 47.52217 8.46151 32995 ft 429 kts 178°
2026-05-04 12:53 47.46282 8.46996 33007 ft 429 kts 178°
2026-05-04 12:53 47.40350 8.47891 33007 ft 429 kts 177°
2026-05-04 12:54 47.34412 8.48777 33002 ft 428 kts 178°
2026-05-04 12:54 47.28474 8.49637 32990 ft 428 kts 178°
2026-05-04 12:55 47.22540 8.50507 32987 ft 428 kts 178°
2026-05-04 12:55 47.16612 8.51375 32990 ft 428 kts 178°
2026-05-04 12:56 47.10709 8.52227 32988 ft 428 kts 178°
2026-05-04 12:56 47.04771 8.53074 32980 ft 428 kts 178°
2026-05-04 12:57 46.98838 8.53928 32970 ft 429 kts 178°
2026-05-04 12:57 46.92890 8.54786 33005 ft 429 kts 178°
2026-05-04 12:58 46.86941 8.55645 33020 ft 430 kts 178°
2026-05-04 12:58 46.80990 8.56502 33037 ft 430 kts 178°
2026-05-04 12:59 46.75024 8.57353 33009 ft 431 kts 178°
2026-05-04 12:59 46.69078 8.58201 33027 ft 432 kts 177°
2026-05-04 13:00 46.63095 8.59059 33042 ft 432 kts 177°
2026-05-04 13:00 46.57104 8.59914 33074 ft 433 kts 177°
2026-05-04 13:01 46.51110 8.60777 33078 ft 433 kts 177°
2026-05-04 13:01 46.45114 8.61618 33081 ft 432 kts 178°
2026-05-04 13:02 46.39124 8.62462 33097 ft 433 kts 178°
2026-05-04 13:02 46.33123 8.63312 33101 ft 433 kts 178°
2026-05-04 13:03 46.27130 8.64158 33105 ft 433 kts 177°
2026-05-04 13:03 46.21132 8.64995 33098 ft 433 kts 177°
2026-05-04 13:04 46.15137 8.65825 33103 ft 433 kts 177°
2026-05-04 13:04 46.09222 8.67594 33103 ft 439 kts 162°
2026-05-04 13:05 46.03714 8.71511 33100 ft 443 kts 156°
2026-05-04 13:05 45.98241 8.75592 33087 ft 444 kts 156°
2026-05-04 13:06 45.92781 8.79640 33091 ft 444 kts 156°
2026-05-04 13:06 45.87291 8.83694 33090 ft 444 kts 156°
2026-05-04 13:07 45.81788 8.87764 33092 ft 445 kts 156°
2026-05-04 13:07 45.76280 8.91835 33096 ft 445 kts 156°
2026-05-04 13:08 45.70769 8.95896 33100 ft 446 kts 156°
2026-05-04 13:08 45.65245 8.99947 33118 ft 446 kts 156°
2026-05-04 13:09 45.59720 9.03997 33087 ft 446 kts 156°
2026-05-04 13:09 45.54197 9.08041 33090 ft 447 kts 156°
2026-05-04 13:10 45.48659 9.12080 33092 ft 447 kts 156°
2026-05-04 13:10 45.43119 9.16100 33096 ft 447 kts 156°
2026-05-04 13:11 45.37608 9.20104 33088 ft 448 kts 156°
2026-05-04 13:11 45.32050 9.24137 33088 ft 449 kts 156°
2026-05-04 13:12 45.26483 9.28168 33091 ft 449 kts 156°
2026-05-04 13:12 45.20915 9.32184 33083 ft 449 kts 156°
2026-05-04 13:13 45.15340 9.36188 33077 ft 449 kts 156°
2026-05-04 13:13 45.09754 9.40197 33075 ft 450 kts 156°
2026-05-04 13:14 45.04168 9.44210 33078 ft 451 kts 156°
2026-05-04 13:14 44.98575 9.48211 33081 ft 451 kts 156°
2026-05-04 13:15 44.92973 9.52207 33082 ft 451 kts 157°
2026-05-04 13:15 44.87391 9.56178 33077 ft 452 kts 156°
2026-05-04 13:16 44.81775 9.60176 33085 ft 452 kts 156°
2026-05-04 13:16 44.76149 9.64172 33083 ft 453 kts 157°
2026-05-04 13:17 44.70517 9.68157 33080 ft 454 kts 157°
2026-05-04 13:17 44.64870 9.72127 33085 ft 454 kts 157°
2026-05-04 13:18 44.59212 9.76105 33091 ft 454 kts 157°
2026-05-04 13:18 44.53561 9.80078 33087 ft 455 kts 157°
2026-05-04 13:19 44.47894 9.84057 33091 ft 456 kts 157°
2026-05-04 13:19 44.42044 9.87361 33095 ft 453 kts 163°
2026-05-04 13:20 44.36148 9.90484 33095 ft 453 kts 163°
2026-05-04 13:20 44.30253 9.93605 33103 ft 453 kts 163°
2026-05-04 13:21 44.24390 9.96703 33119 ft 454 kts 163°
2026-05-04 13:21 44.18479 9.99827 33125 ft 454 kts 163°
2026-05-04 13:22 44.12566 10.02940 33116 ft 455 kts 163°
2026-05-04 13:22 44.06643 10.06045 33117 ft 455 kts 163°
2026-05-04 13:23 44.00719 10.09147 33121 ft 455 kts 163°
2026-05-04 13:23 43.95795 10.11726 33114 ft 455 kts 163°
2026-05-04 13:24 43.89856 10.14832 33117 ft 456 kts 163°
2026-05-04 13:24 43.83909 10.17931 33116 ft 456 kts 163°
2026-05-04 13:25 43.74997 10.22556 33085 ft 456 kts 163°
2026-05-04 13:25 43.69042 10.25635 33092 ft 457 kts 163°
2026-05-04 13:26 43.63079 10.28713 33108 ft 458 kts 163°
2026-05-04 13:26 43.57111 10.31794 33114 ft 458 kts 163°
2026-05-04 13:27 43.51176 10.34862 33098 ft 459 kts 164°
2026-05-04 13:27 43.45190 10.37941 33109 ft 459 kts 164°
2026-05-04 13:28 43.39190 10.41015 33115 ft 460 kts 164°
2026-05-04 13:28 43.33197 10.44085 33104 ft 460 kts 164°
2026-05-04 13:29 43.27196 10.47145 33113 ft 460 kts 164°
2026-05-04 13:29 43.21219 10.50187 33109 ft 461 kts 165°
2026-05-04 13:30 43.15245 10.53229 33107 ft 458 kts 164°
2026-05-04 13:30 43.09249 10.56264 33089 ft 460 kts 165°
2026-05-04 13:31 43.03228 10.59308 33095 ft 462 kts 165°
2026-05-04 13:31 42.97194 10.62364 33101 ft 463 kts 165°
2026-05-04 13:32 42.91149 10.65416 33090 ft 464 kts 166°
2026-05-04 13:32 42.85089 10.68465 33099 ft 465 kts 166°
2026-05-04 13:33 42.78998 10.71524 33106 ft 466 kts 166°
2026-05-04 13:33 42.72910 10.74573 33111 ft 467 kts 166°
2026-05-04 13:34 42.66835 10.77609 33100 ft 468 kts 166°
2026-05-04 13:34 42.60710 10.80664 33105 ft 469 kts 166°
2026-05-04 13:35 42.51490 10.85255 33110 ft 470 kts 166°
2026-05-04 13:36 42.45340 10.88308 33103 ft 471 kts 167°
2026-05-04 13:36 42.39175 10.91353 33103 ft 472 kts 167°
2026-05-04 13:37 42.32988 10.94363 33110 ft 472 kts 167°
2026-05-04 13:37 42.26772 10.97203 33124 ft 471 kts 168°
2026-05-04 13:38 42.20587 10.99982 33120 ft 472 kts 168°
2026-05-04 13:38 42.14356 11.02817 33132 ft 472 kts 168°
2026-05-04 13:39 42.08133 11.05660 33132 ft 472 kts 168°
2026-05-04 13:39 42.01905 11.08504 33112 ft 473 kts 168°
2026-05-04 13:40 41.95659 11.11346 33108 ft 474 kts 168°
2026-05-04 13:40 41.89412 11.14173 33110 ft 474 kts 168°
2026-05-04 13:41 41.83154 11.16997 33100 ft 474 kts 168°
2026-05-04 13:41 41.76903 11.19828 33103 ft 475 kts 168°
2026-05-04 13:42 41.67536 11.24047 33107 ft 475 kts 169°
2026-05-04 13:42 41.61264 11.26853 33092 ft 475 kts 169°
2026-05-04 13:43 41.54986 11.29665 33102 ft 476 kts 169°
2026-05-04 13:43 41.48700 11.32480 33101 ft 477 kts 168°
2026-05-04 13:44 41.42399 11.35294 33081 ft 478 kts 168°
2026-05-04 13:44 41.36082 11.38110 33090 ft 479 kts 168°
2026-05-04 13:45 41.29767 11.40927 33097 ft 479 kts 168°
2026-05-04 13:45 41.23440 11.43737 33099 ft 479 kts 168°
2026-05-04 13:46 41.17109 11.46537 33090 ft 480 kts 169°
2026-05-04 13:46 41.10815 11.49309 33098 ft 480 kts 169°
2026-05-04 13:47 41.04469 11.52100 33103 ft 480 kts 169°
2026-05-04 13:47 40.98138 11.54885 33100 ft 480 kts 169°
2026-05-04 13:48 40.91793 11.57674 33103 ft 480 kts 169°
2026-05-04 13:48 40.85452 11.60456 33106 ft 480 kts 169°
2026-05-04 13:49 40.79116 11.63226 33106 ft 480 kts 169°
2026-05-04 13:49 40.72764 11.65985 33098 ft 480 kts 169°
2026-05-04 13:50 40.66436 11.68745 33096 ft 480 kts 169°
2026-05-04 13:50 40.60083 11.71509 33092 ft 482 kts 169°
2026-05-04 13:51 40.53754 11.74257 33094 ft 483 kts 169°
2026-05-04 13:51 40.47377 11.77023 33098 ft 483 kts 169°
2026-05-04 13:52 40.37810 11.81166 33101 ft 483 kts 169°
2026-05-04 13:53 40.31437 11.83919 33103 ft 482 kts 169°
2026-05-04 13:53 40.25065 11.86652 33110 ft 481 kts 169°
2026-05-04 13:54 40.18705 11.89378 32626 ft 481 kts 169°
2026-05-04 13:54 40.15524 11.90738 32213 ft 482 kts 169°
2026-05-04 13:54 40.09128 11.93475 31409 ft 485 kts 168°
2026-05-04 13:55 40.05917 11.94847 31028 ft 486 kts 168°
2026-05-04 13:55 39.99506 11.97568 30242 ft 490 kts 168°
2026-05-04 13:55 39.96266 11.98948 29816 ft 489 kts 167°
2026-05-04 13:56 39.93039 12.00329 29363 ft 486 kts 167°
2026-05-04 13:56 39.89837 12.01700 28926 ft 482 kts 167°
2026-05-04 13:56 39.83506 12.04397 28065 ft 475 kts 166°
2026-05-04 13:57 39.80367 12.05723 27632 ft 473 kts 166°
2026-05-04 13:57 39.77243 12.07037 27222 ft 470 kts 166°
2026-05-04 13:58 39.68003 12.10939 26023 ft 460 kts 166°
2026-05-04 13:58 39.61946 12.13499 25260 ft 453 kts 165°
2026-05-04 13:58 39.58994 12.14746 25075 ft 451 kts 165°
2026-05-04 13:59 39.56012 12.15997 25119 ft 451 kts 165°
2026-05-04 13:59 39.53020 12.17249 25115 ft 451 kts 165°
2026-05-04 13:59 39.47044 12.19755 25119 ft 451 kts 165°
2026-05-04 14:00 39.44049 12.21012 25117 ft 451 kts 165°
2026-05-04 14:00 39.38079 12.23516 24970 ft 449 kts 165°
2026-05-04 14:00 39.35132 12.24752 24468 ft 444 kts 165°
2026-05-04 14:01 39.32203 12.25976 23949 ft 439 kts 165°
2026-05-04 14:01 39.29311 12.27176 23391 ft 436 kts 165°
2026-05-04 14:01 39.23598 12.29548 22297 ft 427 kts 165°
2026-05-04 14:02 39.20784 12.30718 21817 ft 422 kts 165°
2026-05-04 14:02 39.18005 12.31878 21319 ft 418 kts 165°
2026-05-04 14:02 39.15247 12.33030 20844 ft 414 kts 165°
2026-05-04 14:02 39.12528 12.34160 20364 ft 411 kts 165°
2026-05-04 14:03 39.09817 12.35284 19903 ft 407 kts 165°
2026-05-04 14:03 39.07131 12.36399 19452 ft 404 kts 165°
2026-05-04 14:03 39.04470 12.37505 19010 ft 400 kts 165°
2026-05-04 14:03 39.01867 12.38584 18582 ft 396 kts 165°
2026-05-04 14:04 38.96660 12.40736 17619 ft 390 kts 165°
2026-05-04 14:04 38.94086 12.41796 17098 ft 387 kts 165°
2026-05-04 14:04 38.91527 12.42849 16621 ft 385 kts 165°
2026-05-04 14:05 38.86483 12.45011 15655 ft 381 kts 159°
2026-05-04 14:05 38.84088 12.46446 15202 ft 378 kts 157°
2026-05-04 14:05 38.81721 12.47876 14748 ft 375 kts 157°
2026-05-04 14:06 38.79361 12.49297 14327 ft 372 kts 157°
2026-05-04 14:06 38.77030 12.50696 13904 ft 369 kts 157°
2026-05-04 14:06 38.74707 12.52089 13413 ft 366 kts 157°
2026-05-04 14:06 38.72409 12.53468 12925 ft 363 kts 157°
2026-05-04 14:07 38.70159 12.54819 12458 ft 360 kts 157°
2026-05-04 14:07 38.67899 12.56181 11976 ft 357 kts 157°
2026-05-04 14:07 38.65656 12.57529 11487 ft 355 kts 156°
2026-05-04 14:07 38.63428 12.58865 11009 ft 352 kts 156°
2026-05-04 14:08 38.61216 12.60184 10533 ft 349 kts 156°
2026-05-04 14:08 38.59021 12.61491 10071 ft 346 kts 156°
2026-05-04 14:08 38.56879 12.62770 9923 ft 333 kts 156°
2026-05-04 14:08 38.54821 12.64002 9793 ft 320 kts 156°
2026-05-04 14:09 38.50934 12.66325 9504 ft 298 kts 156°
2026-05-04 14:09 38.49075 12.67433 9189 ft 293 kts 156°
2026-05-04 14:10 38.45400 12.69620 8447 ft 289 kts 156°
2026-05-04 14:10 38.43583 12.70698 8070 ft 287 kts 156°
2026-05-04 14:10 38.41802 12.71757 7692 ft 286 kts 156°
2026-05-04 14:10 38.40007 12.72824 7314 ft 284 kts 156°
2026-05-04 14:11 38.38231 12.73880 7053 ft 277 kts 156°
2026-05-04 14:11 38.34891 12.75861 6776 ft 255 kts 157°
2026-05-04 14:11 38.33282 12.76814 6410 ft 254 kts 157°
2026-05-04 14:12 38.31683 12.77760 6070 ft 252 kts 157°
2026-05-04 14:12 38.30102 12.78692 5738 ft 248 kts 157°
2026-05-04 14:12 38.27076 12.80486 5399 ft 229 kts 156°
2026-05-04 14:13 38.25669 12.81319 5281 ft 218 kts 157°
2026-05-04 14:13 38.24328 12.82110 5155 ft 207 kts 157°
2026-05-04 14:13 38.23038 12.82834 5033 ft 199 kts 159°
2026-05-04 14:13 38.21780 12.83510 4831 ft 195 kts 159°
2026-05-04 14:14 38.20538 12.84172 4581 ft 193 kts 159°
2026-05-04 14:14 38.18095 12.85483 4045 ft 191 kts 158°
2026-05-04 14:14 38.16872 12.86148 3812 ft 190 kts 159°
2026-05-04 14:15 38.14464 12.87452 3376 ft 184 kts 159°
2026-05-04 14:15 38.12164 12.88780 2958 ft 181 kts 143°
2026-05-04 14:16 38.11541 12.91224 2464 ft 193 kts 74°
2026-05-04 14:16 38.12168 12.92745 2141 ft 197 kts 66°
2026-05-04 14:17 38.13259 12.95953 2015 ft 199 kts 71°
2026-05-04 14:17 38.13774 12.97579 2012 ft 197 kts 73°
2026-05-04 14:17 38.14761 13.00619 1432 ft 170 kts 70°
2026-05-04 14:18 38.15191 13.01917 1212 ft 151 kts 69°
2026-05-04 14:18 38.15953 13.04224 815 ft 145 kts 69°
2026-05-04 14:19 38.16681 13.06462 476 ft 133 kts 64°
2026-05-04 14:19 38.17065 13.07527 344 ft 133 kts 68°
2026-05-04 14:19 38.17415 13.08608 141 ft 131 kts 65°
2026-05-04 14:19 38.17757 13.09615 72 ft 110 kts 67°
2026-05-04 14:20 38.17989 13.10307 65 ft 60 kts 68°
2026-05-04 14:20 38.18111 13.10674 62 ft 35 kts 66°
2026-05-04 14:20 38.18156 13.10735 68 ft 3 kts 318°
2026-05-04 14:21 38.18174 13.10682 70 ft 4 kts 279°
2026-05-04 14:21 38.18180 13.10619 62 ft 9 kts 276°
2026-05-04 14:21 38.18186 13.10532 64 ft 10 kts 276°
2026-05-04 14:21 38.18195 13.10446 60 ft 10 kts 280°
2026-05-04 14:22 38.18230 13.10383 59 ft 9 kts 333°
2026-05-04 14:22 38.18282 13.10371 65 ft 7 kts 24°
2026-05-04 14:22 38.18308 13.10428 62 ft 8 kts 66°
2026-05-04 14:22 38.18344 13.10481 64 ft 8 kts 28°
2026-05-04 14:23 38.18451 13.10556 65 ft 10 kts 63°
2026-05-04 14:23 38.18479 13.10638 58 ft 10 kts 66°
2026-05-04 14:23 38.18515 13.10695 61 ft 4 kts 341°
2026-05-04 14:24 38.18542 13.10677 64 ft 4 kts 338°
2026-05-04 14:24 38.18566 13.10664 63 ft 0 kts 337°